カタログに戻る

KL-BETA A

運用中科学PO
NORAD 49059·PAYLOAD·🇩🇪 Germany

打ち上げ Aug 4, 2021 から Taiyuan Satellite Launch Center

Loading…

次のパス (今後24時間)

TLE

最新Source: Space-Track

元期: Sep 14, 2026, 15:03 UTC

1 49059U 21070A   26257.62772874 -.00000094  00000-0 -81156-4 0  9992
2 49059  89.0111 208.9165 0003558  90.0826 270.0757 13.94403488260398

AllMySatでKL-BETA Aをリアルタイム追跡

Download on the App Store